SCATSAT 1 (41790 NORAD) Tracking and Keplerian Element Data

This shows tracking and keplerian element data for the satellite.

Feedback or suggestion? Click here.




ElementValue
Catalog41790
NameSCATSAT 1
Epoch Orbit2793
Epoch Day34.75195982
Epoch Year2025
RAAN87.0179
Inclination98.1894
Eccentricity0.0057726
Argument of Perigee52.0247
Mean Anonmoly308.6157
Mean Motion14.77506741
Decay Rate3.095E-05
L11 41790U 16059H 25034.75195982 .00003095 00000+0 42986-3 0 9990
L22 41790 98.1894 87.0179 0057726 52.0247 308.6157 14.77506741 27934



Live tracking and technical data element details for SCATSAT 1 (NORAD 41790). SCATSAT 1 can be tracked NOW for your location showing map with azimuth and elevation plus other details from your city location.







IsCatalogInMostPopularTable: catalog: 41790, numindb: 556
Update: records affected: 1



GetName: 41790 SCATSAT 1

Hit Count: updated at: Thu, 22 May 2025 04:09:22 GMT